Wetterdaten: aktuell Freitag, 21.09.2018 23:55
Datum Zeit Temp. I. Temp. A. Temp. 2 Feuchte I. Feuchte A. Luftdruck Regen Wind Richtung Richtung Taupunkt Windben
21.09.2018 23:55 24,1 C 16,1 C 15,1 C 50 % 59 % 1022,4 hPa 0,0 l/m 0,0 km/h N 360 -6,8 C 0,0 km/h
21.09.2018 23:50 24,1 C 16,2 C 15,1 C 49 % 59 % 1022,4 hPa 0,0 l/m 0,0 km/h N 360 -6,8 C 0,0 km/h
21.09.2018 23:45 24,2 C 16,5 C 15,2 C 49 % 59 % 1022,2 hPa 0,0 l/m 0,0 km/h N 360 -6,5 C 0,0 km/h
21.09.2018 23:40 24,2 C 16,5 C 15,2 C 50 % 59 % 1022,2 hPa 0,0 l/m 0,0 km/h N 360 -6,5 C 0,0 km/h
21.09.2018 23:35 24,2 C 16,2 C 15,2 C 50 % 59 % 1022,2 hPa 0,0 l/m 0,0 km/h N 360 -6,8 C 0,0 km/h
21.09.2018 23:30 24,2 C 16,2 C 15,3 C 50 % 59 % 1022,2 hPa 0,0 l/m 0,0 km/h N 360 -6,8 C 0,0 km/h
21.09.2018 23:25 24,4 C 16,2 C 15,3 C 51 % 59 % 1022,1 hPa 0,0 l/m 0,0 km/h N 360 -6,8 C 0,0 km/h
21.09.2018 23:20 24,4 C 16,2 C 15,2 C 51 % 59 % 1022,1 hPa 0,0 l/m 0,0 km/h N 360 -6,8 C 0,0 km/h
21.09.2018 23:15 24,4 C 16,3 C 15,2 C 51 % 59 % 1022,1 hPa 0,0 l/m 0,0 km/h N 360 -6,7 C 0,0 km/h
21.09.2018 23:10 24,2 C 16,3 C 15,2 C 51 % 59 % 1022,1 hPa 0,0 l/m 0,0 km/h N 360 -6,7 C 0,0 km/h
21.09.2018 23:05 24,2 C 16,3 C 15,3 C 51 % 59 % 1021,8 hPa 0,0 l/m 0,0 km/h N 360 -6,7 C 0,0 km/h
21.09.2018 23:00 24,2 C 16,5 C 15,3 C 51 % 59 % 1021,8 hPa 0,0 l/m 0,0 km/h N 360 -6,5 C 0,0 km/h
21.09.2018 22:55 24,2 C 16,3 C 15,2 C 51 % 59 % 1021,8 hPa 0,0 l/m 0,0 km/h N 360 -6,7 C 0,0 km/h
21.09.2018 22:50 24,2 C 16,2 C 15,2 C 51 % 59 % 1021,8 hPa 0,0 l/m 0,0 km/h N 360 -6,8 C 0,0 km/h
21.09.2018 22:45 24,2 C 16,2 C 15,3 C 51 % 59 % 1021,6 hPa 0,0 l/m 0,0 km/h N 360 -6,8 C 0,0 km/h
21.09.2018 22:40 24,2 C 16,3 C 15,2 C 51 % 59 % 1021,6 hPa 0,0 l/m 0,0 km/h N 360 -6,7 C 0,0 km/h
21.09.2018 22:35 24,2 C 16,2 C 15,3 C 51 % 59 % 1021,6 hPa 0,0 l/m 0,0 km/h N 360 -6,8 C 0,0 km/h
21.09.2018 22:30 24,2 C 16,2 C 15,2 C 51 % 59 % 1021,6 hPa 0,0 l/m 0,0 km/h N 360 -6,8 C 0,0 km/h
21.09.2018 22:25 24,4 C 16,1 C 15,2 C 51 % 59 % 1021,3 hPa 0,0 l/m 0,0 km/h N 360 -6,8 C 0,0 km/h
21.09.2018 22:20 24,4 C 16,2 C 15,2 C 51 % 59 % 1021,3 hPa 0,0 l/m 0,0 km/h N 360 -6,8 C 0,0 km/h
21.09.2018 22:15 24,4 C 16,2 C 15,3 C 51 % 59 % 1021,3 hPa 0,0 l/m 0,0 km/h N 360 -6,8 C 0,0 km/h
21.09.2018 22:10 24,4 C 16,2 C 15,2 C 52 % 59 % 1021,3 hPa 0,0 l/m 0,0 km/h N 360 -6,8 C 0,0 km/h
21.09.2018 22:05 24,4 C 16,2 C 15,2 C 52 % 59 % 1021,3 hPa 0,0 l/m 0,0 km/h N 360 -6,8 C 0,0 km/h
21.09.2018 22:00 24,4 C 16,2 C 15,2 C 52 % 59 % 1021,3 hPa 0,0 l/m 0,0 km/h N 360 -6,8 C 0,0 km/h
21.09.2018 21:55 24,4 C 16,1 C 15,2 C 52 % 59 % 1021,3 hPa 0,0 l/m 0,0 km/h N 360 -6,8 C 0,0 km/h
21.09.2018 21:50 24,4 C 16,1 C 15,3 C 52 % 59 % 1021,3 hPa 0,0 l/m 0,0 km/h N 360 -6,8 C 0,0 km/h
21.09.2018 21:45 24,4 C 16,3 C 15,3 C 52 % 59 % 1021,1 hPa 0,0 l/m 0,0 km/h N 360 -6,7 C 0,0 km/h
21.09.2018 21:40 24,4 C 16,5 C 15,2 C 52 % 59 % 1021,1 hPa 0,0 l/m 0,0 km/h N 360 -6,5 C 0,0 km/h
21.09.2018 21:35 24,4 C 16,4 C 15,2 C 52 % 59 % 1021,1 hPa 0,0 l/m 0,0 km/h N 360 -6,6 C 0,0 km/h
21.09.2018 21:30 24,4 C 16,2 C 15,3 C 52 % 59 % 1021,1 hPa 0,0 l/m 0,0 km/h N 360 -6,8 C 0,0 km/h
21.09.2018 21:25 24,4 C 16,2 C 15,3 C 52 % 59 % 1020,8 hPa 0,0 l/m 0,0 km/h N 360 -6,8 C 0,0 km/h
21.09.2018 21:20 24,4 C 16,2 C 15,3 C 52 % 59 % 1020,8 hPa 0,0 l/m 0,0 km/h N 360 -6,8 C 0,0 km/h
21.09.2018 21:15 24,4 C 16,1 C 15,3 C 52 % 59 % 1020,8 hPa 0,0 l/m 0,0 km/h N 360 -6,8 C 0,0 km/h
21.09.2018 21:10 24,4 C 16,1 C 15,3 C 52 % 59 % 1020,8 hPa 0,0 l/m 0,0 km/h N 360 -6,8 C 0,0 km/h
21.09.2018 21:05 24,4 C 16,4 C 15,3 C 52 % 59 % 1020,7 hPa 0,0 l/m 0,0 km/h N 360 -6,6 C 0,0 km/h
21.09.2018 21:00 24,5 C 16,4 C 15,3 C 53 % 59 % 1020,7 hPa 0,0 l/m 0,0 km/h N 360 -6,6 C 0,0 km/h
21.09.2018 20:55 24,5 C 16,5 C 15,3 C 53 % 59 % 1020,7 hPa 0,0 l/m 0,0 km/h N 360 -6,5 C 0,0 km/h
21.09.2018 20:50 24,5 C 16,5 C 15,3 C 53 % 59 % 1020,7 hPa 0,0 l/m 0,0 km/h N 360 -6,5 C 0,0 km/h
21.09.2018 20:45 24,5 C 16,6 C 15,4 C 53 % 60 % 1020,4 hPa 0,0 l/m 0,0 km/h N 360 -6,4 C 0,0 km/h
21.09.2018 20:40 24,6 C 16,5 C 15,3 C 53 % 59 % 1020,4 hPa 0,0 l/m 0,0 km/h N 360 -6,5 C 0,0 km/h
21.09.2018 20:35 24,6 C 16,8 C 15,3 C 53 % 60 % 1020,4 hPa 0,0 l/m 0,0 km/h N 360 -6,3 C 0,0 km/h
21.09.2018 20:30 24,6 C 16,8 C 15,3 C 53 % 60 % 1020,4 hPa 0,0 l/m 0,0 km/h N 360 -6,3 C 0,0 km/h
21.09.2018 20:25 24,6 C 16,5 C 15,3 C 53 % 59 % 1019,7 hPa 0,0 l/m 0,0 km/h N 360 -6,5 C 0,0 km/h
21.09.2018 20:20 24,6 C 16,4 C 15,3 C 54 % 59 % 1019,7 hPa 0,0 l/m 0,0 km/h N 360 -6,6 C 0,0 km/h
21.09.2018 20:15 24,6 C 16,4 C 15,3 C 54 % 59 % 1019,7 hPa 0,0 l/m 0,0 km/h N 360 -6,6 C 0,0 km/h
21.09.2018 20:10 24,5 C 16,5 C 15,4 C 54 % 59 % 1019,7 hPa 0,0 l/m 0,0 km/h N 360 -6,5 C 0,0 km/h
21.09.2018 20:05 24,5 C 16,4 C 15,4 C 54 % 59 % 1019,1 hPa 0,0 l/m 0,0 km/h N 360 -6,6 C 0,0 km/h
21.09.2018 20:00 24,4 C 16,4 C 15,4 C 54 % 59 % 1019,1 hPa 0,0 l/m 0,0 km/h N 360 -6,6 C 0,0 km/h
21.09.2018 19:55 24,4 C 16,4 C 15,4 C 54 % 59 % 1019,1 hPa 0,0 l/m 0,0 km/h N 360 -6,6 C 0,0 km/h
21.09.2018 19:50 24,4 C 16,6 C 15,4 C 53 % 60 % 1019,1 hPa 0,0 l/m 0,0 km/h N 360 -6,4 C 0,0 km/h
21.09.2018 19:45 24,4 C 16,8 C 15,5 C 53 % 60 % 1018,5 hPa 0,0 l/m 0,0 km/h N 360 -6,3 C 0,0 km/h
21.09.2018 19:40 24,5 C 16,9 C 15,7 C 53 % 60 % 1018,5 hPa 0,0 l/m 0,0 km/h N 360 -6,2 C 0,0 km/h
21.09.2018 19:35 24,6 C 16,9 C 15,7 C 54 % 60 % 1018,5 hPa 0,0 l/m 0,0 km/h N 360 -6,2 C 0,0 km/h
21.09.2018 19:30 24,6 C 16,9 C 15,6 C 54 % 60 % 1018,5 hPa 0,0 l/m 0,0 km/h N 360 -6,2 C 0,0 km/h
21.09.2018 19:25 24,6 C 17,2 C 15,7 C 54 % 61 % 1018,6 hPa 0,0 l/m 0,0 km/h N 360 -5,9 C 0,0 km/h
21.09.2018 19:20 24,6 C 17,2 C 15,7 C 54 % 61 % 1018,6 hPa 0,0 l/m 0,0 km/h N 360 -5,9 C 0,0 km/h
21.09.2018 19:15 24,8 C 17,2 C 15,7 C 54 % 61 % 1018,6 hPa 0,0 l/m 0,0 km/h N 360 -5,9 C 0,0 km/h
21.09.2018 19:10 24,9 C 17,3 C 15,7 C 54 % 61 % 1018,6 hPa 0,0 l/m 0,0 km/h N 360 -5,9 C 0,0 km/h
21.09.2018 19:05 25,0 C 18,5 C 17,2 C 56 % 63 % 1017,9 hPa 0,0 l/m 0,0 km/h N 360 -4,9 C 0,0 km/h
21.09.2018 19:00 25,0 C 18,5 C 17,2 C 57 % 63 % 1017,9 hPa 0,0 l/m 0,0 km/h N 360 -4,9 C 0,0 km/h
21.09.2018 18:55 25,0 C 18,5 C 17,2 C 58 % 63 % 1017,9 hPa 0,0 l/m 0,0 km/h N 360 -4,9 C 0,0 km/h
21.09.2018 18:50 25,0 C 18,5 C 17,2 C 57 % 63 % 1017,9 hPa 0,0 l/m 0,0 km/h N 360 -4,9 C 0,0 km/h
21.09.2018 18:45 24,9 C 18,5 C 17,2 C 57 % 63 % 1017,8 hPa 0,0 l/m 0,0 km/h N 360 -4,9 C 0,0 km/h
21.09.2018 18:40 24,8 C 18,5 C 17,2 C 57 % 63 % 1017,8 hPa 0,0 l/m 0,0 km/h N 360 -4,9 C 0,0 km/h
21.09.2018 18:35 24,8 C 18,5 C 17,2 C 57 % 63 % 1017,8 hPa 0,0 l/m 0,0 km/h N 360 -4,9 C 0,0 km/h
21.09.2018 18:30 24,8 C 18,5 C 17,2 C 57 % 63 % 1017,8 hPa 0,0 l/m 0,0 km/h N 360 -4,9 C 0,0 km/h
21.09.2018 18:25 24,8 C 18,7 C 17,2 C 57 % 63 % 1017,6 hPa 0,0 l/m 0,0 km/h N 360 -4,7 C 0,0 km/h
21.09.2018 18:20 24,7 C 18,7 C 17,2 C 56 % 63 % 1017,6 hPa 0,0 l/m 0,0 km/h N 360 -4,7 C 0,0 km/h
21.09.2018 18:15 24,7 C 18,7 C 17,4 C 56 % 63 % 1017,6 hPa 0,0 l/m 0,0 km/h N 360 -4,7 C 0,0 km/h
21.09.2018 18:10 24,7 C 18,8 C 17,8 C 56 % 63 % 1017,6 hPa 0,0 l/m 0,0 km/h N 360 -4,6 C 0,0 km/h
21.09.2018 18:05 24,7 C 19,1 C 18,3 C 56 % 64 % 1016,4 hPa 0,0 l/m 0,0 km/h N 360 -4,4 C 0,0 km/h
21.09.2018 18:00 24,7 C 19,4 C 18,6 C 56 % 64 % 1016,4 hPa 0,0 l/m 0,0 km/h N 360 -4,1 C 0,0 km/h
21.09.2018 17:55 24,7 C 19,5 C 19,2 C 57 % 65 % 1016,4 hPa 0,0 l/m 0,0 km/h N 360 -4,0 C 0,0 km/h
21.09.2018 17:50 24,7 C 19,5 C 20,1 C 57 % 65 % 1016,4 hPa 0,0 l/m 0,0 km/h N 360 -4,0 C 0,0 km/h
21.09.2018 17:45 24,8 C 20,2 C 21,0 C 56 % 66 % 1014,5 hPa 0,0 l/m 0,0 km/h N 360 -3,5 C 0,0 km/h
21.09.2018 17:40 24,7 C 20,4 C 21,7 C 56 % 66 % 1014,5 hPa 0,0 l/m 0,0 km/h N 360 -3,3 C 0,0 km/h
21.09.2018 17:35 24,7 C 20,6 C 22,2 C 56 % 67 % 1014,5 hPa 0,0 l/m 0,0 km/h N 360 -3,1 C 0,0 km/h
21.09.2018 17:30 24,7 C 20,6 C 22,7 C 56 % 67 % 1014,5 hPa 0,0 l/m 0,0 km/h N 360 -3,1 C 0,0 km/h
21.09.2018 17:25 24,7 C 21,0 C 23,6 C 56 % 67 % 1013,1 hPa 0,0 l/m 0,0 km/h N 360 -2,8 C 0,0 km/h
21.09.2018 17:20 24,8 C 21,2 C 24,0 C 56 % 68 % 1013,1 hPa 0,0 l/m 0,0 km/h N 360 -2,6 C 0,0 km/h
21.09.2018 17:15 24,8 C 21,2 C 24,1 C 56 % 68 % 1013,1 hPa 0,0 l/m 0,0 km/h N 360 -2,6 C 0,0 km/h
21.09.2018 17:10 24,7 C 21,2 C 24,1 C 56 % 68 % 1013,1 hPa 0,0 l/m 0,0 km/h N 360 -2,6 C 0,0 km/h
21.09.2018 17:05 24,8 C 21,2 C 24,3 C 56 % 68 % 1012,8 hPa 0,0 l/m 0,0 km/h N 360 -2,6 C 0,0 km/h
21.09.2018 17:00 24,8 C 21,2 C 24,2 C 56 % 68 % 1012,8 hPa 0,0 l/m 0,0 km/h N 360 -2,6 C 0,0 km/h
21.09.2018 16:55 24,8 C 21,2 C 24,3 C 56 % 68 % 1012,8 hPa 0,0 l/m 0,0 km/h N 360 -2,6 C 0,0 km/h
21.09.2018 16:50 24,8 C 21,2 C 24,3 C 56 % 68 % 1012,8 hPa 0,0 l/m 0,0 km/h N 360 -2,6 C 0,0 km/h
21.09.2018 16:45 24,8 C 21,1 C 24,4 C 56 % 67 % 1012,6 hPa 0,0 l/m 0,0 km/h N 360 -2,7 C 0,0 km/h
21.09.2018 16:40 24,8 C 21,1 C 24,5 C 56 % 67 % 1012,6 hPa 0,0 l/m 0,0 km/h N 360 -2,7 C 0,0 km/h
21.09.2018 16:35 24,8 C 21,1 C 24,7 C 56 % 67 % 1012,6 hPa 0,0 l/m 0,0 km/h N 360 -2,7 C 0,0 km/h
21.09.2018 16:30 24,8 C 21,1 C 24,7 C 56 % 67 % 1012,6 hPa 0,0 l/m 0,0 km/h N 360 -2,7 C 0,0 km/h
21.09.2018 16:25 24,8 C 21,2 C 24,8 C 56 % 68 % 1012,8 hPa 0,0 l/m 0,0 km/h N 360 -2,6 C 0,0 km/h
21.09.2018 16:20 24,8 C 21,2 C 24,9 C 56 % 68 % 1012,8 hPa 0,0 l/m 0,0 km/h N 360 -2,6 C 0,0 km/h
21.09.2018 16:15 24,8 C 21,3 C 25,0 C 56 % 68 % 1012,8 hPa 0,0 l/m 0,0 km/h N 360 -2,6 C 0,0 km/h
21.09.2018 16:10 24,8 C 21,3 C 25,0 C 56 % 68 % 1012,8 hPa 0,0 l/m 0,0 km/h N 360 -2,6 C 0,0 km/h
21.09.2018 16:05 24,8 C 21,2 C 25,0 C 56 % 68 % 1012,9 hPa 0,0 l/m 0,0 km/h N 360 -2,6 C 0,0 km/h
21.09.2018 16:00 24,8 C 21,3 C 25,0 C 56 % 68 % 1012,9 hPa 0,0 l/m 0,0 km/h N 360 -2,6 C 0,0 km/h
21.09.2018 15:55 24,8 C 21,2 C 25,1 C 56 % 68 % 1012,9 hPa 0,0 l/m 0,0 km/h N 360 -2,6 C 0,0 km/h
21.09.2018 15:50 24,8 C 21,3 C 25,1 C 56 % 68 % 1012,9 hPa 0,0 l/m 0,0 km/h N 360 -2,6 C 0,0 km/h
21.09.2018 15:45 24,8 C 21,2 C 25,0 C 56 % 68 % 1012,8 hPa 0,0 l/m 0,0 km/h N 360 -2,6 C 0,0 km/h
21.09.2018 15:40 24,7 C 21,3 C 25,1 C 56 % 68 % 1012,8 hPa 0,0 l/m 0,0 km/h N 360 -2,6 C 0,0 km/h
21.09.2018 15:35 24,7 C 21,2 C 25,2 C 56 % 68 % 1012,8 hPa 0,0 l/m 0,0 km/h N 360 -2,6 C 0,0 km/h
21.09.2018 15:30 24,8 C 21,2 C 25,3 C 56 % 68 % 1012,8 hPa 0,0 l/m 0,0 km/h N 360 -2,6 C 0,0 km/h
21.09.2018 15:25 24,7 C 21,2 C 25,3 C 56 % 68 % 1012,9 hPa 0,0 l/m 0,0 km/h N 360 -2,6 C 0,0 km/h
21.09.2018 15:20 24,7 C 21,2 C 25,3 C 56 % 68 % 1012,9 hPa 0,0 l/m 0,0 km/h N 360 -2,6 C 0,0 km/h
21.09.2018 15:15 24,7 C 21,3 C 25,5 C 56 % 68 % 1012,9 hPa 0,0 l/m 0,0 km/h N 360 -2,6 C 0,0 km/h
21.09.2018 15:10 24,7 C 21,3 C 25,5 C 56 % 68 % 1012,9 hPa 0,0 l/m 0,0 km/h N 360 -2,6 C 0,0 km/h
21.09.2018 15:05 24,7 C 21,4 C 25,5 C 56 % 68 % 1013,1 hPa 0,0 l/m 0,0 km/h N 360 -2,5 C 0,0 km/h
21.09.2018 15:00 24,7 C 21,4 C 25,5 C 56 % 68 % 1013,1 hPa 0,0 l/m 0,0 km/h N 360 -2,5 C 0,0 km/h
21.09.2018 14:55 24,7 C 21,5 C 25,5 C 56 % 68 % 1013,1 hPa 0,0 l/m 0,0 km/h N 360 -2,4 C 0,0 km/h
21.09.2018 14:50 24,8 C 21,6 C 25,3 C 56 % 68 % 1013,1 hPa 0,0 l/m 0,0 km/h N 360 -2,3 C 0,0 km/h
21.09.2018 14:45 24,7 C 21,3 C 25,2 C 56 % 68 % 1013,1 hPa 0,0 l/m 0,0 km/h N 360 -2,6 C 0,0 km/h
21.09.2018 14:40 24,7 C 21,2 C 25,2 C 57 % 68 % 1013,1 hPa 0,0 l/m 0,0 km/h N 360 -2,6 C 0,0 km/h
21.09.2018 14:35 24,7 C 21,2 C 25,1 C 57 % 68 % 1013,1 hPa 0,0 l/m 0,0 km/h N 360 -2,6 C 0,0 km/h
21.09.2018 14:30 24,7 C 21,2 C 25,0 C 57 % 68 % 1013,1 hPa 0,0 l/m 0,0 km/h N 360 -2,6 C 0,0 km/h
21.09.2018 14:25 24,7 C 21,1 C 24,9 C 57 % 67 % 1013,1 hPa 0,0 l/m 0,0 km/h N 360 -2,7 C 0,0 km/h
21.09.2018 14:20 24,7 C 21,0 C 24,9 C 57 % 67 % 1013,1 hPa 0,0 l/m 0,0 km/h N 360 -2,8 C 0,0 km/h
21.09.2018 14:15 24,7 C 21,1 C 24,9 C 57 % 67 % 1013,1 hPa 0,0 l/m 0,0 km/h N 360 -2,7 C 0,0 km/h
21.09.2018 14:10 24,7 C 21,0 C 24,8 C 57 % 67 % 1013,1 hPa 0,0 l/m 0,0 km/h N 360 -2,8 C 0,0 km/h
21.09.2018 14:05 24,7 C 21,1 C 24,9 C 57 % 67 % 1013,4 hPa 0,0 l/m 0,0 km/h N 360 -2,7 C 0,0 km/h
21.09.2018 14:00 24,7 C 21,0 C 24,9 C 57 % 67 % 1013,4 hPa 0,0 l/m 0,0 km/h N 360 -2,8 C 0,0 km/h
21.09.2018 13:55 24,7 C 21,1 C 24,9 C 57 % 67 % 1013,4 hPa 0,0 l/m 0,0 km/h N 360 -2,7 C 0,0 km/h
21.09.2018 13:50 24,7 C 21,1 C 24,9 C 57 % 67 % 1013,4 hPa 0,0 l/m 0,0 km/h N 360 -2,7 C 0,0 km/h
21.09.2018 13:45 24,7 C 21,1 C 25,3 C 56 % 67 % 1013,2 hPa 0,0 l/m 0,0 km/h N 360 -2,7 C 0,0 km/h
21.09.2018 13:40 24,7 C 21,1 C 25,3 C 57 % 67 % 1013,2 hPa 0,0 l/m 0,0 km/h N 360 -2,7 C 0,0 km/h
21.09.2018 13:35 24,7 C 21,0 C 25,3 C 56 % 67 % 1013,2 hPa 0,0 l/m 0,0 km/h N 360 -2,8 C 0,0 km/h
21.09.2018 13:30 24,7 C 21,1 C 25,3 C 57 % 67 % 1013,2 hPa 0,0 l/m 0,0 km/h N 360 -2,7 C 0,0 km/h
21.09.2018 13:25 24,7 C 21,1 C 25,3 C 56 % 67 % 1012,9 hPa 0,0 l/m 0,0 km/h N 360 -2,7 C 0,0 km/h
21.09.2018 13:20 24,7 C 21,1 C 25,3 C 56 % 67 % 1012,9 hPa 0,0 l/m 0,0 km/h N 360 -2,7 C 0,0 km/h
21.09.2018 13:15 24,7 C 21,2 C 25,3 C 56 % 68 % 1012,9 hPa 0,0 l/m 0,0 km/h N 360 -2,6 C 0,0 km/h
21.09.2018 13:10 24,7 C 21,3 C 25,3 C 56 % 68 % 1012,9 hPa 0,0 l/m 0,0 km/h N 360 -2,6 C 0,0 km/h
21.09.2018 13:05 24,7 C 21,4 C 25,2 C 56 % 68 % 1013,3 hPa 0,0 l/m 0,0 km/h N 360 -2,5 C 0,0 km/h
21.09.2018 13:00 24,7 C 21,4 C 25,2 C 56 % 68 % 1013,3 hPa 0,0 l/m 0,0 km/h N 360 -2,5 C 0,0 km/h
21.09.2018 12:55 24,7 C 21,6 C 25,3 C 56 % 68 % 1013,3 hPa 0,0 l/m 0,0 km/h N 360 -2,3 C 0,0 km/h
21.09.2018 12:50 24,7 C 21,6 C 25,3 C 57 % 68 % 1013,3 hPa 0,0 l/m 0,0 km/h N 360 -2,3 C 0,0 km/h
21.09.2018 12:45 24,6 C 21,4 C 25,2 C 57 % 68 % 1013,4 hPa 0,0 l/m 0,0 km/h N 360 -2,5 C 0,0 km/h
21.09.2018 12:40 24,6 C 21,5 C 25,3 C 57 % 68 % 1013,4 hPa 0,0 l/m 0,0 km/h N 360 -2,4 C 0,0 km/h
21.09.2018 12:35 24,6 C 21,6 C 25,3 C 56 % 68 % 1013,4 hPa 0,0 l/m 0,0 km/h N 360 -2,3 C 0,0 km/h
21.09.2018 12:30 24,6 C 21,5 C 25,3 C 56 % 68 % 1013,4 hPa 0,0 l/m 0,0 km/h N 360 -2,4 C 0,0 km/h
21.09.2018 12:25 24,6 C 21,4 C 25,3 C 57 % 68 % 1013,1 hPa 0,0 l/m 0,0 km/h N 360 -2,5 C 0,0 km/h
21.09.2018 12:20 24,6 C 21,5 C 25,2 C 57 % 68 % 1013,1 hPa 0,0 l/m 0,0 km/h N 360 -2,4 C 0,0 km/h
21.09.2018 12:15 24,6 C 21,6 C 25,2 C 57 % 68 % 1013,1 hPa 0,0 l/m 0,0 km/h N 360 -2,3 C 0,0 km/h
21.09.2018 12:10 24,6 C 21,6 C 25,4 C 57 % 68 % 1013,1 hPa 0,0 l/m 0,0 km/h N 360 -2,3 C 0,0 km/h
21.09.2018 12:05 24,6 C 21,9 C 25,4 C 57 % 69 % 1013,4 hPa 0,0 l/m 0,0 km/h N 360 -2,1 C 0,0 km/h
21.09.2018 12:00 24,5 C 21,7 C 25,2 C 57 % 68 % 1013,4 hPa 0,0 l/m 0,0 km/h N 360 -2,2 C 0,0 km/h
21.09.2018 11:55 24,5 C 21,4 C 25,2 C 57 % 68 % 1013,4 hPa 0,0 l/m 0,0 km/h N 360 -2,5 C 0,0 km/h
21.09.2018 11:50 24,5 C 21,4 C 25,2 C 57 % 68 % 1013,4 hPa 0,0 l/m 0,0 km/h N 360 -2,5 C 0,0 km/h
21.09.2018 11:45 24,5 C 21,4 C 24,8 C 57 % 68 % 1013,5 hPa 0,0 l/m 0,0 km/h N 360 -2,5 C 0,0 km/h
21.09.2018 11:40 24,5 C 21,6 C 24,8 C 57 % 68 % 1013,5 hPa 0,0 l/m 0,0 km/h N 360 -2,3 C 0,0 km/h
21.09.2018 11:35 24,4 C 21,3 C 24,7 C 57 % 68 % 1013,5 hPa 0,0 l/m 0,0 km/h N 360 -2,6 C 0,0 km/h
21.09.2018 11:30 24,4 C 21,4 C 24,6 C 57 % 68 % 1013,5 hPa 0,0 l/m 0,0 km/h N 360 -2,5 C 0,0 km/h
21.09.2018 11:25 24,4 C 21,2 C 24,5 C 56 % 68 % 1013,8 hPa 0,0 l/m 0,0 km/h N 360 -2,6 C 0,0 km/h
21.09.2018 11:20 24,4 C 21,1 C 24,4 C 56 % 67 % 1013,8 hPa 0,0 l/m 0,0 km/h N 360 -2,7 C 0,0 km/h
21.09.2018 11:15 24,4 C 21,2 C 24,1 C 56 % 68 % 1013,8 hPa 0,0 l/m 0,0 km/h N 360 -2,6 C 0,0 km/h
21.09.2018 11:10 24,2 C 21,2 C 24,1 C 56 % 68 % 1013,8 hPa 0,0 l/m 0,0 km/h N 360 -2,6 C 0,0 km/h
21.09.2018 11:05 24,2 C 21,1 C 23,9 C 56 % 67 % 1013,8 hPa 0,0 l/m 0,0 km/h N 360 -2,7 C 0,0 km/h
21.09.2018 11:00 24,3 C 21,2 C 23,7 C 56 % 68 % 1013,8 hPa 0,0 l/m 0,0 km/h N 360 -2,6 C 0,0 km/h
21.09.2018 10:55 24,3 C 21,1 C 23,5 C 56 % 67 % 1013,8 hPa 0,0 l/m 0,0 km/h N 360 -2,7 C 0,0 km/h
21.09.2018 10:50 24,2 C 21,0 C 23,4 C 56 % 67 % 1013,8 hPa 0,0 l/m 0,0 km/h N 360 -2,8 C 0,0 km/h
21.09.2018 10:45 24,2 C 20,5 C 23,3 C 56 % 66 % 1013,8 hPa 0,0 l/m 0,0 km/h N 360 -3,2 C 0,0 km/h
21.09.2018 10:40 24,2 C 20,4 C 23,2 C 56 % 66 % 1013,8 hPa 0,0 l/m 0,0 km/h N 360 -3,3 C 0,0 km/h
21.09.2018 10:35 24,2 C 20,3 C 23,0 C 56 % 66 % 1013,8 hPa 0,0 l/m 0,0 km/h N 360 -3,4 C 0,0 km/h
21.09.2018 10:30 24,2 C 20,3 C 22,9 C 56 % 66 % 1013,8 hPa 0,0 l/m 0,0 km/h N 360 -3,4 C 0,0 km/h
21.09.2018 10:25 24,2 C 19,9 C 22,3 C 56 % 65 % 1013,5 hPa 0,0 l/m 0,0 km/h N 360 -3,7 C 0,0 km/h
21.09.2018 10:20 24,2 C 20,0 C 22,3 C 57 % 66 % 1013,5 hPa 0,0 l/m 0,0 km/h N 360 -3,6 C 0,0 km/h
21.09.2018 10:15 24,1 C 19,8 C 22,0 C 57 % 65 % 1013,5 hPa 0,0 l/m 0,0 km/h N 360 -3,8 C 0,0 km/h
21.09.2018 10:10 24,1 C 19,8 C 21,9 C 57 % 65 % 1013,5 hPa 0,0 l/m 0,0 km/h N 360 -3,8 C 0,0 km/h
21.09.2018 10:05 24,1 C 19,8 C 21,5 C 57 % 65 % 1013,4 hPa 0,0 l/m 0,0 km/h N 360 -3,8 C 0,0 km/h
21.09.2018 10:00 24,0 C 19,7 C 21,3 C 57 % 65 % 1013,4 hPa 0,0 l/m 0,0 km/h N 360 -3,9 C 0,0 km/h
21.09.2018 09:55 24,0 C 19,6 C 21,0 C 57 % 65 % 1013,4 hPa 0,0 l/m 0,0 km/h N 360 -4,0 C 0,0 km/h
21.09.2018 09:50 24,0 C 19,5 C 20,7 C 57 % 65 % 1013,4 hPa 0,0 l/m 0,0 km/h N 360 -4,0 C 0,0 km/h
21.09.2018 09:45 24,0 C 19,5 C 20,4 C 56 % 65 % 1013,6 hPa 0,0 l/m 0,0 km/h N 360 -4,0 C 0,0 km/h
21.09.2018 09:40 24,0 C 19,5 C 20,3 C 56 % 65 % 1013,6 hPa 0,0 l/m 0,0 km/h N 360 -4,0 C 0,0 km/h
21.09.2018 09:35 24,0 C 19,4 C 20,0 C 56 % 64 % 1013,6 hPa 0,0 l/m 0,0 km/h N 360 -4,1 C 0,0 km/h
21.09.2018 09:30 24,0 C 19,4 C 19,9 C 56 % 64 % 1013,6 hPa 0,0 l/m 0,0 km/h N 360 -4,1 C 0,0 km/h
21.09.2018 09:25 24,0 C 19,3 C 19,5 C 56 % 64 % 1013,8 hPa 0,0 l/m 0,0 km/h N 360 -4,2 C 0,0 km/h
21.09.2018 09:20 23,9 C 19,2 C 19,2 C 56 % 64 % 1013,8 hPa 0,0 l/m 0,0 km/h N 360 -4,3 C 0,0 km/h
21.09.2018 09:15 23,9 C 19,2 C 19,0 C 56 % 64 % 1013,8 hPa 0,0 l/m 0,0 km/h N 360 -4,3 C 0,0 km/h
21.09.2018 09:10 23,9 C 19,1 C 18,8 C 56 % 64 % 1013,8 hPa 0,0 l/m 0,0 km/h N 360 -4,4 C 0,0 km/h
21.09.2018 09:05 23,8 C 19,0 C 18,5 C 56 % 64 % 1013,8 hPa 0,0 l/m 0,0 km/h N 360 -4,5 C 0,0 km/h
21.09.2018 09:00 23,9 C 18,9 C 18,4 C 56 % 64 % 1013,8 hPa 0,0 l/m 0,0 km/h N 360 -4,5 C 0,0 km/h
21.09.2018 08:55 23,8 C 18,9 C 18,3 C 56 % 64 % 1013,8 hPa 0,0 l/m 0,0 km/h N 360 -4,5 C 0,0 km/h
21.09.2018 08:50 23,8 C 18,8 C 18,1 C 56 % 63 % 1013,8 hPa 0,0 l/m 0,0 km/h N 360 -4,6 C 0,0 km/h
21.09.2018 08:45 23,8 C 18,7 C 17,9 C 56 % 63 % 1013,9 hPa 0,0 l/m 0,0 km/h N 360 -4,7 C 0,0 km/h
21.09.2018 08:40 23,8 C 18,7 C 17,9 C 56 % 63 % 1013,9 hPa 0,0 l/m 0,0 km/h N 360 -4,7 C 0,0 km/h
21.09.2018 08:35 23,8 C 18,6 C 17,6 C 56 % 63 % 1013,9 hPa 0,0 l/m 0,0 km/h N 360 -4,8 C 0,0 km/h
21.09.2018 08:30 23,8 C 18,6 C 17,5 C 56 % 63 % 1013,9 hPa 0,0 l/m 0,0 km/h N 360 -4,8 C 0,0 km/h
21.09.2018 08:25 23,8 C 18,5 C 17,3 C 55 % 63 % 1014,1 hPa 0,0 l/m 0,0 km/h N 360 -4,9 C 0,0 km/h
21.09.2018 08:20 23,8 C 18,5 C 17,1 C 55 % 63 % 1014,1 hPa 0,0 l/m 0,0 km/h N 360 -4,9 C 0,0 km/h
21.09.2018 08:14 23,7 C 18,4 C 16,9 C 55 % 63 % 1014,1 hPa 0,0 l/m 0,0 km/h N 360 -4,9 C 0,0 km/h
21.09.2018 08:10 23,7 C 18,4 C 16,9 C 55 % 63 % 1014,1 hPa 0,0 l/m 0,0 km/h N 360 -4,9 C 0,0 km/h
21.09.2018 08:05 23,7 C 18,3 C 16,8 C 55 % 63 % 1014,1 hPa 0,0 l/m 0,0 km/h N 360 -5,0 C 0,0 km/h
21.09.2018 08:00 23,7 C 18,3 C 16,7 C 55 % 63 % 1013,9 hPa 0,0 l/m 0,0 km/h N 360 -5,0 C 0,0 km/h
21.09.2018 07:55 23,7 C 18,3 C 16,6 C 55 % 63 % 1013,9 hPa 0,0 l/m 0,0 km/h N 360 -5,0 C 0,0 km/h
21.09.2018 07:50 23,7 C 18,2 C 16,5 C 55 % 62 % 1013,9 hPa 0,0 l/m 0,0 km/h N 360 -5,1 C 0,0 km/h
21.09.2018 07:45 23,7 C 18,2 C 16,3 C 55 % 62 % 1013,9 hPa 0,0 l/m 0,0 km/h N 360 -5,1 C 0,0 km/h
21.09.2018 07:40 23,7 C 18,2 C 16,3 C 55 % 62 % 1014,1 hPa 0,0 l/m 0,0 km/h N 360 -5,1 C 0,0 km/h
21.09.2018 07:35 23,7 C 18,2 C 16,2 C 55 % 62 % 1014,1 hPa 0,0 l/m 0,0 km/h N 360 -5,1 C 0,0 km/h
21.09.2018 07:30 23,8 C 18,2 C 16,1 C 55 % 62 % 1014,1 hPa 0,0 l/m 0,0 km/h N 360 -5,1 C 0,0 km/h
21.09.2018 07:25 23,8 C 18,2 C 16,0 C 55 % 62 % 1014,1 hPa 0,0 l/m 0,0 km/h N 360 -5,1 C 0,0 km/h
21.09.2018 07:20 23,8 C 18,1 C 16,0 C 55 % 62 % 1014,2 hPa 0,0 l/m 0,0 km/h N 360 -5,2 C 0,0 km/h
21.09.2018 07:15 23,8 C 18,1 C 16,0 C 55 % 62 % 1014,2 hPa 0,0 l/m 0,0 km/h N 360 -5,2 C 0,0 km/h
21.09.2018 07:10 23,8 C 18,1 C 16,0 C 55 % 62 % 1014,2 hPa 0,0 l/m 0,0 km/h N 360 -5,2 C 0,0 km/h
21.09.2018 07:05 23,8 C 18,1 C 15,9 C 55 % 62 % 1014,2 hPa 0,0 l/m 0,0 km/h N 360 -5,2 C 0,0 km/h
21.09.2018 07:00 23,8 C 18,1 C 15,9 C 55 % 62 % 1014,3 hPa 0,0 l/m 0,0 km/h N 360 -5,2 C 0,0 km/h
21.09.2018 06:55 23,8 C 18,1 C 16,0 C 54 % 62 % 1014,3 hPa 0,0 l/m 0,0 km/h N 360 -5,2 C 0,0 km/h
21.09.2018 06:50 23,8 C 18,0 C 15,9 C 54 % 62 % 1014,3 hPa 0,0 l/m 0,0 km/h N 360 -5,3 C 0,0 km/h
21.09.2018 06:45 23,8 C 18,1 C 15,9 C 54 % 62 % 1014,3 hPa 0,0 l/m 0,0 km/h N 360 -5,2 C 0,0 km/h
21.09.2018 06:40 23,8 C 18,0 C 15,9 C 54 % 62 % 1014,6 hPa 0,0 l/m 0,0 km/h N 360 -5,3 C 0,0 km/h
21.09.2018 06:35 23,8 C 18,0 C 16,0 C 54 % 62 % 1014,6 hPa 0,0 l/m 0,0 km/h N 360 -5,3 C 0,0 km/h
21.09.2018 06:30 23,8 C 17,9 C 16,0 C 54 % 62 % 1014,6 hPa 0,0 l/m 0,0 km/h N 360 -5,4 C 0,0 km/h
21.09.2018 06:25 23,9 C 17,9 C 16,0 C 54 % 62 % 1014,6 hPa 0,0 l/m 0,0 km/h N 360 -5,4 C 0,0 km/h
21.09.2018 06:20 23,8 C 18,0 C 16,0 C 54 % 62 % 1014,6 hPa 0,0 l/m 0,0 km/h N 360 -5,3 C 0,0 km/h
21.09.2018 06:15 23,9 C 18,1 C 16,0 C 54 % 62 % 1014,6 hPa 0,0 l/m 0,0 km/h N 360 -5,2 C 0,0 km/h
21.09.2018 06:10 23,9 C 18,0 C 16,1 C 54 % 62 % 1014,6 hPa 0,0 l/m 0,0 km/h N 360 -5,3 C 0,0 km/h
21.09.2018 06:05 23,9 C 18,0 C 16,0 C 54 % 62 % 1014,6 hPa 0,0 l/m 0,0 km/h N 360 -5,3 C 0,0 km/h
21.09.2018 06:00 23,9 C 18,0 C 16,1 C 54 % 62 % 1015,0 hPa 0,0 l/m 0,0 km/h N 360 -5,3 C 0,0 km/h
21.09.2018 05:55 23,9 C 18,0 C 16,0 C 54 % 62 % 1015,0 hPa 0,0 l/m 0,0 km/h N 360 -5,3 C 0,0 km/h
21.09.2018 05:50 23,9 C 17,9 C 16,1 C 54 % 62 % 1015,0 hPa 0,0 l/m 0,0 km/h N 360 -5,4 C 0,0 km/h
21.09.2018 05:45 24,0 C 17,8 C 16,2 C 54 % 62 % 1015,0 hPa 0,0 l/m 0,0 km/h N 360 -5,4 C 0,0 km/h
21.09.2018 05:40 24,0 C 17,9 C 16,3 C 54 % 62 % 1015,2 hPa 0,0 l/m 0,0 km/h N 360 -5,4 C 0,0 km/h
21.09.2018 05:35 24,0 C 17,9 C 16,3 C 54 % 62 % 1015,2 hPa 0,0 l/m 0,0 km/h N 360 -5,4 C 0,0 km/h
21.09.2018 05:30 24,0 C 17,9 C 16,3 C 54 % 62 % 1015,2 hPa 0,0 l/m 0,0 km/h N 360 -5,4 C 0,0 km/h
21.09.2018 05:25 24,0 C 18,1 C 16,4 C 54 % 62 % 1015,2 hPa 0,0 l/m 0,0 km/h N 360 -5,2 C 0,0 km/h
21.09.2018 05:20 24,0 C 18,0 C 16,5 C 55 % 62 % 1015,2 hPa 0,0 l/m 0,0 km/h N 360 -5,3 C 0,0 km/h
21.09.2018 05:15 24,0 C 18,2 C 16,4 C 55 % 62 % 1015,2 hPa 0,0 l/m 0,0 km/h N 360 -5,1 C 0,0 km/h
21.09.2018 05:10 24,0 C 18,1 C 16,6 C 55 % 62 % 1015,2 hPa 0,0 l/m 0,0 km/h N 360 -5,2 C 0,0 km/h
21.09.2018 05:05 24,0 C 18,1 C 16,6 C 55 % 62 % 1015,2 hPa 0,0 l/m 0,0 km/h N 360 -5,2 C 0,0 km/h
21.09.2018 05:00 24,1 C 18,2 C 16,7 C 55 % 62 % 1015,6 hPa 0,0 l/m 0,0 km/h N 360 -5,1 C 0,0 km/h
21.09.2018 04:55 24,0 C 18,2 C 16,7 C 55 % 62 % 1015,6 hPa 0,0 l/m 0,0 km/h N 360 -5,1 C 0,0 km/h
21.09.2018 04:50 24,1 C 18,3 C 16,7 C 55 % 63 % 1015,6 hPa 0,0 l/m 0,0 km/h N 360 -5,0 C 0,0 km/h
21.09.2018 04:45 24,1 C 18,4 C 16,8 C 55 % 63 % 1015,6 hPa 0,0 l/m 0,0 km/h N 360 -4,9 C 0,0 km/h
21.09.2018 04:40 24,1 C 18,5 C 16,9 C 55 % 63 % 1015,6 hPa 0,0 l/m 0,0 km/h N 360 -4,9 C 0,0 km/h
21.09.2018 04:35 24,1 C 18,6 C 16,9 C 55 % 63 % 1015,6 hPa 0,0 l/m 0,0 km/h N 360 -4,8 C 0,0 km/h
21.09.2018 04:30 24,1 C 18,6 C 16,8 C 55 % 63 % 1015,6 hPa 0,0 l/m 0,0 km/h N 360 -4,8 C 0,0 km/h
21.09.2018 04:25 24,1 C 18,7 C 16,8 C 55 % 63 % 1015,6 hPa 0,0 l/m 0,0 km/h N 360 -4,7 C 0,0 km/h
21.09.2018 04:20 24,2 C 18,6 C 16,9 C 55 % 63 % 1015,6 hPa 0,0 l/m 0,0 km/h N 360 -4,8 C 0,0 km/h
21.09.2018 04:15 24,2 C 18,7 C 16,9 C 55 % 63 % 1015,6 hPa 0,0 l/m 0,0 km/h N 360 -4,7 C 0,0 km/h
21.09.2018 04:10 24,2 C 18,7 C 16,9 C 55 % 63 % 1015,6 hPa 0,0 l/m 0,0 km/h N 360 -4,7 C 0,0 km/h
21.09.2018 04:05 24,2 C 18,7 C 16,9 C 55 % 63 % 1015,6 hPa 0,0 l/m 0,0 km/h N 360 -4,7 C 0,0 km/h
21.09.2018 04:00 24,2 C 18,7 C 16,9 C 55 % 63 % 1015,8 hPa 0,0 l/m 0,0 km/h N 360 -4,7 C 0,0 km/h
21.09.2018 03:55 24,2 C 18,6 C 16,9 C 55 % 63 % 1015,8 hPa 0,0 l/m 0,0 km/h N 360 -4,8 C 0,0 km/h
21.09.2018 03:50 24,2 C 18,6 C 16,8 C 55 % 63 % 1015,8 hPa 0,0 l/m 0,0 km/h N 360 -4,8 C 0,0 km/h
21.09.2018 03:45 24,2 C 18,6 C 16,8 C 55 % 63 % 1015,8 hPa 0,0 l/m 0,0 km/h N 360 -4,8 C 0,0 km/h
21.09.2018 03:40 24,2 C 18,6 C 16,9 C 55 % 63 % 1015,9 hPa 0,0 l/m 0,0 km/h N 360 -4,8 C 0,0 km/h
21.09.2018 03:35 24,2 C 18,6 C 16,9 C 55 % 63 % 1015,9 hPa 0,0 l/m 0,0 km/h N 360 -4,8 C 0,0 km/h
21.09.2018 03:30 24,2 C 18,6 C 16,8 C 55 % 63 % 1015,9 hPa 0,0 l/m 0,0 km/h N 360 -4,8 C 0,0 km/h
21.09.2018 03:25 24,3 C 18,6 C 16,8 C 55 % 63 % 1015,9 hPa 0,0 l/m 0,0 km/h N 360 -4,8 C 0,0 km/h
21.09.2018 03:20 24,3 C 18,6 C 16,8 C 55 % 63 % 1016,0 hPa 0,0 l/m 0,0 km/h N 360 -4,8 C 0,0 km/h
21.09.2018 03:15 24,3 C 18,6 C 16,8 C 55 % 63 % 1016,0 hPa 0,0 l/m 0,0 km/h N 360 -4,8 C 0,0 km/h
21.09.2018 03:10 24,3 C 18,5 C 16,7 C 55 % 63 % 1016,0 hPa 0,0 l/m 0,0 km/h N 360 -4,9 C 0,0 km/h
21.09.2018 03:05 24,2 C 18,5 C 16,7 C 55 % 63 % 1016,0 hPa 0,0 l/m 0,0 km/h N 360 -4,9 C 0,0 km/h
21.09.2018 03:00 24,2 C 18,5 C 16,7 C 55 % 63 % 1015,6 hPa 0,0 l/m 0,0 km/h N 360 -4,9 C 0,0 km/h
21.09.2018 02:55 24,2 C 18,4 C 16,7 C 55 % 63 % 1015,6 hPa 0,0 l/m 0,0 km/h N 360 -4,9 C 0,0 km/h
21.09.2018 02:50 24,4 C 18,2 C 16,6 C 55 % 62 % 1015,6 hPa 0,0 l/m 0,0 km/h N 360 -5,1 C 0,0 km/h
21.09.2018 02:45 24,4 C 18,1 C 16,7 C 55 % 62 % 1015,6 hPa 0,0 l/m 0,0 km/h N 360 -5,2 C 0,0 km/h
21.09.2018 02:40 24,4 C 18,2 C 16,7 C 55 % 62 % 1016,4 hPa 0,0 l/m 0,0 km/h N 360 -5,1 C 0,0 km/h
21.09.2018 02:35 24,4 C 18,1 C 16,6 C 55 % 62 % 1016,4 hPa 0,0 l/m 0,0 km/h N 360 -5,2 C 0,0 km/h
21.09.2018 02:30 24,4 C 18,3 C 16,7 C 55 % 63 % 1016,4 hPa 0,0 l/m 0,0 km/h N 360 -5,0 C 0,0 km/h
21.09.2018 02:25 24,4 C 18,3 C 16,7 C 55 % 63 % 1016,4 hPa 0,0 l/m 0,0 km/h N 360 -5,0 C 0,0 km/h
21.09.2018 02:20 24,4 C 18,3 C 16,7 C 55 % 63 % 1016,5 hPa 0,0 l/m 0,0 km/h N 360 -5,0 C 0,0 km/h
21.09.2018 02:15 24,5 C 18,2 C 16,8 C 55 % 62 % 1016,5 hPa 0,0 l/m 0,0 km/h N 360 -5,1 C 0,0 km/h
21.09.2018 02:10 24,5 C 18,3 C 16,8 C 55 % 63 % 1016,5 hPa 0,0 l/m 0,0 km/h N 360 -5,0 C 0,0 km/h
21.09.2018 02:05 24,5 C 18,5 C 16,9 C 55 % 63 % 1016,5 hPa 0,0 l/m 0,0 km/h N 360 -4,9 C 0,0 km/h
21.09.2018 02:00 24,5 C 18,5 C 16,9 C 55 % 63 % 1016,8 hPa 0,0 l/m 0,0 km/h N 360 -4,9 C 0,0 km/h
21.09.2018 01:55 24,5 C 18,6 C 17,0 C 55 % 63 % 1016,8 hPa 0,0 l/m 0,0 km/h N 360 -4,8 C 0,0 km/h
21.09.2018 01:50 24,6 C 18,6 C 17,1 C 55 % 63 % 1016,8 hPa 0,0 l/m 0,0 km/h N 360 -4,8 C 0,0 km/h
21.09.2018 01:45 24,6 C 18,6 C 17,1 C 55 % 63 % 1016,8 hPa 0,0 l/m 0,0 km/h N 360 -4,8 C 0,0 km/h
21.09.2018 01:40 24,6 C 18,6 C 17,3 C 55 % 63 % 1016,9 hPa 0,0 l/m 0,0 km/h N 360 -4,8 C 0,0 km/h
21.09.2018 01:35 24,7 C 18,6 C 17,2 C 55 % 63 % 1016,9 hPa 0,0 l/m 0,0 km/h N 360 -4,8 C 0,0 km/h
21.09.2018 01:30 24,7 C 18,6 C 17,3 C 56 % 63 % 1016,9 hPa 0,0 l/m 0,0 km/h N 360 -4,8 C 0,0 km/h
21.09.2018 01:25 24,7 C 18,7 C 17,5 C 56 % 63 % 1016,9 hPa 0,0 l/m 0,0 km/h N 360 -4,7 C 0,0 km/h
21.09.2018 01:20 24,8 C 18,7 C 17,4 C 56 % 63 % 1017,1 hPa 0,0 l/m 0,0 km/h N 360 -4,7 C 0,0 km/h
21.09.2018 01:15 24,8 C 18,7 C 17,6 C 56 % 63 % 1017,1 hPa 0,0 l/m 0,0 km/h N 360 -4,7 C 0,0 km/h
21.09.2018 01:10 24,8 C 18,7 C 17,6 C 56 % 63 % 1017,1 hPa 0,0 l/m 0,0 km/h N 360 -4,7 C 0,0 km/h
21.09.2018 01:05 24,8 C 18,8 C 17,6 C 56 % 63 % 1017,1 hPa 0,0 l/m 0,0 km/h N 360 -4,6 C 0,0 km/h
21.09.2018 01:00 24,8 C 18,7 C 17,7 C 56 % 63 % 1017,2 hPa 0,0 l/m 0,0 km/h N 360 -4,7 C 0,0 km/h
21.09.2018 00:55 24,9 C 18,8 C 17,7 C 56 % 63 % 1017,2 hPa 0,0 l/m 0,0 km/h N 360 -4,6 C 0,0 km/h
21.09.2018 00:50 24,9 C 18,9 C 17,9 C 56 % 64 % 1017,2 hPa 0,0 l/m 0,0 km/h N 360 -4,5 C 0,0 km/h
21.09.2018 00:45 24,9 C 18,9 C 17,9 C 56 % 64 % 1017,2 hPa 0,0 l/m 0,0 km/h N 360 -4,5 C 0,0 km/h
21.09.2018 00:40 25,0 C 18,9 C 17,9 C 56 % 64 % 1017,6 hPa 0,0 l/m 0,0 km/h N 360 -4,5 C 0,0 km/h
21.09.2018 00:35 25,0 C 18,9 C 18,1 C 57 % 64 % 1017,6 hPa 0,0 l/m 0,0 km/h N 360 -4,5 C 0,0 km/h
21.09.2018 00:30 25,0 C 19,0 C 18,1 C 57 % 64 % 1017,6 hPa 0,0 l/m 0,0 km/h N 360 -4,5 C 0,0 km/h
21.09.2018 00:25 25,0 C 18,9 C 18,2 C 57 % 64 % 1017,6 hPa 0,0 l/m 0,0 km/h N 360 -4,5 C 0,0 km/h
21.09.2018 00:20 25,1 C 18,8 C 18,2 C 57 % 63 % 1017,5 hPa 0,0 l/m 0,0 km/h N 360 -4,6 C 0,0 km/h
21.09.2018 00:15 25,1 C 18,6 C 18,3 C 57 % 63 % 1017,5 hPa 0,0 l/m 0,0 km/h N 360 -4,8 C 0,0 km/h
21.09.2018 00:10 25,1 C 18,7 C 18,3 C 57 % 63 % 1017,5 hPa 0,0 l/m 0,0 km/h N 360 -4,7 C 0,0 km/h
21.09.2018 00:05 25,1 C 18,7 C 18,4 C 57 % 63 % 1017,5 hPa 0,0 l/m 0,0 km/h N 360 -4,7 C 0,0 km/h
21.09.2018 00:00 25,2 C 18,9 C 18,4 C 58 % 64 % 1017,8 hPa 0,0 l/m 0,0 km/h N 360 -4,5 C 0,0 km/h
_ Min-Zeit 07:35 21:10 23:50 23:45 - 16:30 - 00:00 - - 21:10 00:00
Minimum _ 23,7 C 16,1 C 15,1 C 49 % - 1012,6 hPa - 0,0 km/h - - -6,8 C 0,0 km/h
_ Max-Zeit 00:00 12:05 14:55 00:00 12:05 23:50 00:00 00:00 - - 12:05 00:00
Maximum _ 25,2 C 21,9 C 25,5 C 58 % 69 % 1022,4 hPa 0,0 l/m 0,0 km/h
N
- - -2,1 C 0,0 km/h
N
Durchschnitt _ 24,4 C 18,9 C 19,2 C 55 % #45 min. 1015,9 hPa #0,0 l/m 0,0 km/h N - -4,5 C 0,0 km/h